| time (UTC) | temp F | wind direction | speed MPH | gust MPH | rain 1hr in | rain 24hr in | rain mn in | humidity % | barometer mb |
| 20260509105048 | 52 | 106 | 0.0 | 2.0 | 0.00 | 0.00 | 0.00 | 33 | 1017.9 |
| 20260509104609 | 52 | 121 | 1.0 | 3.0 | 0.00 | 0.00 | 0.00 | 32 | 1017.9 |
| 20260509104046 | 52 | 132 | 1.0 | 3.0 | 0.00 | 0.00 | 0.00 | 32 | 1017.9 |
| 20260509103555 | 52 | 136 | 2.0 | 4.0 | 0.00 | 0.00 | 0.00 | 33 | 1017.9 |
| 20260509103112 | 52 | 324 | 0.0 | 3.0 | 0.00 | 0.00 | 0.00 | 32 | 1017.9 |
| 20260509102505 | 52 | 324 | 0.0 | 2.0 | 0.00 | 0.00 | 0.00 | 32 | 1017.9 |
| 20260509102059 | 52 | 324 | 0.0 | 2.0 | 0.00 | 0.00 | 0.00 | 32 | 1017.9 |
| 20260509101512 | 52 | 324 | 0.0 | 2.0 | 0.00 | 0.00 | 0.00 | 32 | 1018.0 |
| 20260509101057 | 52 | 324 | 0.0 | 1.0 | 0.00 | 0.00 | 0.00 | 32 | 1018.0 |
| 20260509100604 | 52 | 324 | 0.0 | 2.0 | 0.00 | 0.00 | 0.00 | 32 | 1018.0 |
| 20260509100059 | 52 | 324 | 0.0 | 2.0 | 0.00 | 0.00 | 0.00 | 32 | 1018.1 |
| 20260509095501 | 52 | 324 | 0.0 | 2.0 | 0.00 | 0.00 | 0.00 | 32 | 1018.0 |
| 20260509095057 | 52 | 324 | 0.0 | 2.0 | 0.00 | 0.00 | 0.00 | 32 | 1018.0 |
| 20260509094605 | 52 | 324 | 0.0 | 2.0 | 0.00 | 0.00 | 0.00 | 32 | 1018.1 |
| 20260509094056 | 52 | 324 | 0.0 | 2.0 | 0.00 | 0.00 | 0.00 | 32 | 1018.0 |
| 20260509093603 | 52 | 324 | 0.0 | 2.0 | 0.00 | 0.00 | 0.00 | 31 | 1018.0 |
| 20260509093054 | 52 | 324 | 0.0 | 2.0 | 0.00 | 0.00 | 0.00 | 31 | 1017.9 |
| 20260509092600 | 52 | 324 | 1.0 | 2.0 | 0.00 | 0.00 | 0.00 | 31 | 1017.9 |
| 20260509092002 | 52 | 271 | 0.0 | 1.0 | 0.00 | 0.00 | 0.00 | 31 | 1017.9 |
| 20260509091508 | 53 | 271 | 0.0 | 0.0 | 0.00 | 0.00 | 0.00 | 30 | 1018.0 |
| 20260509091015 | 53 | 271 | 0.0 | 2.0 | 0.00 | 0.00 | 0.00 | 30 | 1017.9 |
| 20260509090520 | 53 | 271 | 0.0 | 2.0 | 0.00 | 0.00 | 0.00 | 30 | 1017.9 |
| 20260509090043 | 53 | 271 | 0.0 | 2.0 | 0.00 | 0.00 | 0.00 | 30 | 1017.9 |
| 20260509085534 | 54 | 271 | 0.0 | 2.0 | 0.00 | 0.00 | 0.00 | 29 | 1017.9 |
| 20260509085042 | 54 | 271 | 0.0 | 1.0 | 0.00 | 0.00 | 0.00 | 29 | 1018.0 |
| 20260509084536 | 54 | 271 | 1.0 | 2.0 | 0.00 | 0.00 | 0.00 | 28 | 1017.9 |
| 20260509084041 | 55 | 271 | 0.0 | 2.0 | 0.00 | 0.00 | 0.00 | 28 | 1018.0 |
| 20260509083548 | 55 | 271 | 0.0 | 1.0 | 0.00 | 0.00 | 0.00 | 28 | 1018.0 |
| 20260509083055 | 56 | 271 | 1.0 | 2.0 | 0.00 | 0.00 | 0.00 | 27 | 1018.0 |
| 20260509082545 | 56 | 263 | 0.0 | 3.0 | 0.00 | 0.00 | 0.00 | 26 | 1018.0 |
| 20260509082053 | 57 | 253 | 1.0 | 3.0 | 0.00 | 0.00 | 0.00 | 26 | 1018.1 |
| 20260509081551 | 58 | 266 | 2.0 | 3.0 | 0.00 | 0.00 | 0.00 | 26 | 1018.0 |
| 20260509081034 | 58 | 225 | 1.0 | 3.0 | 0.00 | 0.00 | 0.00 | 26 | 1018.0 |
| 20260509080542 | 58 | 78 | 0.0 | 2.0 | 0.00 | 0.00 | 0.00 | 26 | 1017.8 |
| 20260509080034 | 59 | 78 | 0.0 | 2.0 | 0.00 | 0.00 | 0.00 | 26 | 1017.8 |
| 20260509075541 | 59 | 78 | 0.0 | 2.0 | 0.00 | 0.00 | 0.00 | 26 | 1017.7 |
| 20260509075045 | 59 | 78 | 1.0 | 4.0 | 0.00 | 0.00 | 0.00 | 26 | 1017.8 |
| 20260509074558 | 59 | 78 | 1.0 | 4.0 | 0.00 | 0.00 | 0.00 | 26 | 1017.7 |
| 20260509074045 | 59 | 76 | 2.0 | 4.0 | 0.00 | 0.00 | 0.00 | 26 | 1017.7 |
| 20260509073553 | 59 | 65 | 2.0 | 4.0 | 0.00 | 0.00 | 0.00 | 26 | 1017.6 |
| 20260509073048 | 59 | 90 | 2.0 | 4.0 | 0.00 | 0.00 | 0.00 | 26 | 1017.7 |
| 20260509072535 | 59 | 81 | 3.0 | 4.0 | 0.00 | 0.00 | 0.00 | 26 | 1017.8 |
| 20260509072042 | 59 | 81 | 3.0 | 4.0 | 0.00 | 0.00 | 0.00 | 25 | 1017.7 |
| 20260509071552 | 60 | 96 | 3.0 | 4.0 | 0.00 | 0.00 | 0.00 | 25 | 1017.8 |
| 20260509071053 | 60 | 94 | 2.0 | 4.0 | 0.00 | 0.00 | 0.00 | 25 | 1017.8 |
| 20260509070548 | 60 | 64 | 1.0 | 3.0 | 0.00 | 0.00 | 0.00 | 25 | 1017.8 |
| 20260509070042 | 61 | 26 | 0.0 | 2.0 | 0.00 | 0.00 | 0.00 | 24 | 1017.8 |
| 20260509065541 | 61 | 26 | 1.0 | 3.0 | 0.00 | 0.00 | 0.00 | 24 | 1017.9 |
| 20260509065032 | 61 | 21 | 1.0 | 4.0 | 0.00 | 0.00 | 0.00 | 24 | 1017.9 |
| 20260509064542 | 61 | 34 | 2.0 | 4.0 | 0.00 | 0.00 | 0.00 | 24 | 1017.9 |
| 20260509064050 | 61 | 27 | 3.0 | 4.0 | 0.00 | 0.00 | 0.00 | 24 | 1017.9 |
| 20260509063556 | 62 | 29 | 2.0 | 5.0 | 0.00 | 0.00 | 0.00 | 24 | 1017.9 |
| 20260509063103 | 62 | 28 | 2.0 | 5.0 | 0.00 | 0.00 | 0.00 | 24 | 1017.8 |
| 20260509062554 | 62 | 22 | 2.0 | 5.0 | 0.00 | 0.00 | 0.00 | 23 | 1017.9 |
| 20260509062059 | 63 | 11 | 2.0 | 5.0 | 0.00 | 0.00 | 0.00 | 23 | 1017.9 |
| 20260509061502 | 63 | 33 | 3.0 | 5.0 | 0.00 | 0.00 | 0.00 | 23 | 1017.9 |
| 20260509061057 | 63 | 30 | 2.0 | 5.0 | 0.00 | 0.00 | 0.00 | 23 | 1017.9 |
| 20260509060604 | 64 | 29 | 3.0 | 6.0 | 0.00 | 0.00 | 0.00 | 23 | 1017.9 |
| 20260509060110 | 64 | 34 | 3.0 | 6.0 | 0.00 | 0.00 | 0.00 | 23 | 1017.9 |
| 20260509055600 | 63 | 33 | 3.0 | 5.0 | 0.00 | 0.00 | 0.00 | 23 | 1018.0 |
| 20260509055004 | 63 | 39 | 3.0 | 5.0 | 0.00 | 0.00 | 0.00 | 23 | 1018.0 |
| 20260509054510 | 63 | 29 | 2.0 | 4.0 | 0.00 | 0.00 | 0.00 | 23 | 1018.0 |
| 20260509054015 | 63 | 28 | 1.0 | 2.0 | 0.00 | 0.00 | 0.00 | 23 | 1018.1 |
| 20260509053506 | 63 | 17 | 1.0 | 3.0 | 0.00 | 0.00 | 0.00 | 23 | 1018.0 |
| 20260509053017 | 63 | 5 | 1.0 | 3.0 | 0.00 | 0.00 | 0.00 | 22 | 1018.1 |
| 20260509052503 | 64 | 5 | 1.0 | 3.0 | 0.00 | 0.00 | 0.00 | 22 | 1018.1 |
| 20260509052058 | 64 | 22 | 1.0 | 4.0 | 0.00 | 0.00 | 0.00 | 22 | 1018.2 |
| 20260509051501 | 64 | 15 | 2.0 | 4.0 | 0.00 | 0.00 | 0.00 | 22 | 1018.0 |
| 20260509051057 | 64 | 13 | 1.0 | 3.0 | 0.00 | 0.00 | 0.00 | 22 | 1018.1 |
| 20260509050603 | 64 | 15 | 2.0 | 3.0 | 0.00 | 0.00 | 0.00 | 22 | 1018.1 |
| 20260509050054 | 65 | 11 | 1.0 | 3.0 | 0.00 | 0.00 | 0.00 | 22 | 1018.2 |
| 20260509045544 | 65 | 9 | 1.0 | 2.0 | 0.00 | 0.00 | 0.00 | 21 | 1018.2 |
| 20260509045051 | 66 | 9 | 1.0 | 2.0 | 0.00 | 0.00 | 0.00 | 21 | 1018.2 |
| 20260509044557 | 66 | 9 | 1.0 | 2.0 | 0.00 | 0.00 | 0.00 | 21 | 1018.2 |
| 20260509044106 | 66 | 15 | 1.0 | 3.0 | 0.00 | 0.00 | 0.00 | 21 | 1018.2 |
| 20260509043555 | 67 | 15 | 0.0 | 3.0 | 0.00 | 0.00 | 0.00 | 21 | 1018.2 |
| 20260509043103 | 67 | 355 | 1.0 | 3.0 | 0.00 | 0.00 | 0.00 | 21 | 1018.2 |
| 20260509042553 | 67 | 294 | 1.0 | 3.0 | 0.00 | 0.00 | 0.00 | 21 | 1018.2 |
| 20260509042102 | 67 | 333 | 1.0 | 4.0 | 0.00 | 0.00 | 0.00 | 20 | 1018.1 |
| 20260509041550 | 67 | 303 | 2.0 | 5.0 | 0.00 | 0.00 | 0.00 | 20 | 1018.1 |
| 20260509041041 | 68 | 291 | 2.0 | 8.0 | 0.00 | 0.00 | 0.00 | 20 | 1018.1 |
| 20260509040551 | 68 | 289 | 4.0 | 8.0 | 0.00 | 0.00 | 0.00 | 20 | 1018.0 |
| 20260509040053 | 68 | 336 | 3.0 | 6.0 | 0.00 | 0.00 | 0.00 | 20 | 1018.0 |
| 20260509035601 | 68 | 355 | 4.0 | 6.0 | 0.00 | 0.00 | 0.00 | 20 | 1017.9 |
| 20260509035052 | 69 | 311 | 3.0 | 6.0 | 0.00 | 0.00 | 0.00 | 19 | 1017.8 |
| 20260509034559 | 69 | 281 | 2.0 | 6.0 | 0.00 | 0.00 | 0.00 | 19 | 1017.8 |
| 20260509034050 | 69 | 291 | 2.0 | 8.0 | 0.00 | 0.00 | 0.00 | 19 | 1017.7 |
| 20260509033540 | 69 | 290 | 3.0 | 7.0 | 0.00 | 0.00 | 0.00 | 19 | 1017.6 |
| 20260509033046 | 69 | 269 | 3.0 | 7.0 | 0.00 | 0.00 | 0.00 | 19 | 1017.6 |
| 20260509032552 | 70 | 254 | 2.0 | 5.0 | 0.00 | 0.00 | 0.00 | 19 | 1017.5 |
| 20260509032059 | 70 | 290 | 2.0 | 6.0 | 0.00 | 0.00 | 0.00 | 19 | 1017.6 |
| 20260509031551 | 70 | 278 | 2.0 | 5.0 | 0.00 | 0.00 | 0.00 | 18 | 1017.5 |
| 20260509031100 | 71 | 284 | 3.0 | 5.0 | 0.00 | 0.00 | 0.00 | 18 | 1017.4 |
| 20260509030549 | 71 | 286 | 2.0 | 6.0 | 0.00 | 0.00 | 0.00 | 18 | 1017.4 |
| 20260509030057 | 71 | 286 | 2.0 | 7.0 | 0.00 | 0.00 | 0.00 | 18 | 1017.3 |
| 20260509025545 | 72 | 265 | 3.0 | 8.0 | 0.00 | 0.00 | 0.00 | 18 | 1017.3 |
| 20260509025040 | 72 | 273 | 4.0 | 8.0 | 0.00 | 0.00 | 0.00 | 18 | 1017.2 |
| 20260509024545 | 72 | 274 | 3.0 | 8.0 | 0.00 | 0.00 | 0.00 | 18 | 1017.2 |
| 20260509024036 | 73 | 304 | 3.0 | 5.0 | 0.00 | 0.00 | 0.00 | 17 | 1017.1 |
| 20260509023543 | 73 | 272 | 2.0 | 8.0 | 0.00 | 0.00 | 0.00 | 17 | 1017.1 |
| 20260509023049 | 73 | 298 | 4.0 | 9.0 | 0.00 | 0.00 | 0.00 | 17 | 1017.1 |
| 20260509022556 | 73 | 296 | 5.0 | 9.0 | 0.00 | 0.00 | 0.00 | 17 | 1016.9 |
| 20260509022047 | 74 | 270 | 5.0 | 11.0 | 0.00 | 0.00 | 0.00 | 17 | 1016.9 |
| 20260509021553 | 74 | 285 | 6.0 | 14.0 | 0.00 | 0.00 | 0.00 | 16 | 1016.9 |
| 20260509021058 | 74 | 276 | 6.0 | 14.0 | 0.00 | 0.00 | 0.00 | 16 | 1016.8 |
| 20260509020502 | 75 | 271 | 5.0 | 10.0 | 0.00 | 0.00 | 0.00 | 16 | 1016.8 |
| 20260509020057 | 75 | 277 | 7.0 | 13.0 | 0.00 | 0.00 | 0.00 | 16 | 1016.7 |
| 20260509015600 | 75 | 288 | 6.0 | 16.0 | 0.00 | 0.00 | 0.00 | 16 | 1016.7 |
| 20260509015002 | 76 | 263 | 7.0 | 12.0 | 0.00 | 0.00 | 0.00 | 16 | 1016.7 |
| 20260509014525 | 76 | 288 | 8.0 | 13.0 | 0.00 | 0.00 | 0.00 | 16 | 1016.7 |
| 20260509014103 | 76 | 295 | 8.0 | 16.0 | 0.00 | 0.00 | 0.00 | 16 | 1016.7 |
| 20260509013507 | 76 | 280 | 10.0 | 17.0 | 0.00 | 0.00 | 0.00 | 16 | 1016.7 |
| 20260509013101 | 76 | 302 | 8.0 | 17.0 | 0.00 | 0.00 | 0.00 | 16 | 1016.7 |
| 20260509012551 | 77 | 291 | 9.0 | 16.0 | 0.00 | 0.00 | 0.00 | 16 | 1016.7 |
| 20260509012059 | 77 | 302 | 10.0 | 16.0 | 0.00 | 0.00 | 0.00 | 16 | 1016.7 |
| 20260509011548 | 77 | 278 | 8.0 | 17.0 | 0.00 | 0.00 | 0.00 | 16 | 1016.7 |
| 20260509011040 | 77 | 289 | 12.0 | 19.0 | 0.00 | 0.00 | 0.00 | 15 | 1016.7 |
| 20260509010548 | 77 | 315 | 10.0 | 17.0 | 0.00 | 0.00 | 0.00 | 16 | 1016.7 |
| 20260509010053 | 78 | 313 | 8.0 | 21.0 | 0.00 | 0.00 | 0.00 | 15 | 1016.6 |
| 20260509005600 | 78 | 300 | 14.0 | 21.0 | 0.00 | 0.00 | 0.00 | 15 | 1016.6 |
| 20260509005052 | 78 | 306 | 7.0 | 19.0 | 0.00 | 0.00 | 0.00 | 15 | 1016.6 |
| 20260509004607 | 78 | 281 | 12.0 | 19.0 | 0.00 | 0.00 | 0.00 | 15 | 1016.6 |
| 20260509004049 | 78 | 324 | 9.0 | 21.0 | 0.00 | 0.00 | 0.00 | 15 | 1016.6 |
| 20260509003555 | 78 | 296 | 11.0 | 21.0 | 0.00 | 0.00 | 0.00 | 15 | 1016.7 |
| 20260509003047 | 78 | 250 | 9.0 | 21.0 | 0.00 | 0.00 | 0.00 | 15 | 1016.6 |
| 20260509002538 | 78 | 221 | 7.0 | 19.0 | 0.00 | 0.00 | 0.00 | 15 | 1016.6 |
| 20260509002049 | 78 | 288 | 10.0 | 20.0 | 0.00 | 0.00 | 0.00 | 15 | 1016.7 |
| 20260509001536 | 78 | 315 | 12.0 | 22.0 | 0.00 | 0.00 | 0.00 | 15 | 1016.7 |
| 20260509001043 | 78 | 311 | 16.0 | 22.0 | 0.00 | 0.00 | 0.00 | 15 | 1016.6 |
| 20260509000549 | 79 | 271 | 9.0 | 19.0 | 0.00 | 0.00 | 0.00 | 15 | 1016.6 |
| 20260509000057 | 79 | 287 | 9.0 | 20.0 | 0.00 | 0.00 | 0.00 | 15 | 1016.7 |
| 20260508235548 | 79 | 286 | 13.0 | 20.0 | 0.00 | 0.00 | 0.00 | 15 | 1016.6 |
| 20260508235056 | 79 | 317 | 11.0 | 19.0 | 0.00 | 0.00 | 0.00 | 15 | 1016.5 |
| 20260508234552 | 79 | 235 | 10.0 | 18.0 | 0.00 | 0.00 | 0.00 | 15 | 1016.6 |
| 20260508234039 | 79 | 295 | 12.0 | 23.0 | 0.00 | 0.00 | 0.00 | 15 | 1016.6 |
| 20260508233546 | 79 | 203 | 13.0 | 25.0 | 0.00 | 0.00 | 0.00 | 15 | 1016.5 |
| 20260508233053 | 79 | 321 | 12.0 | 25.0 | 0.00 | 0.00 | 0.00 | 15 | 1016.6 |
| 20260508232559 | 80 | 292 | 14.0 | 22.0 | 0.00 | 0.00 | 0.00 | 15 | 1016.6 |
| 20260508232105 | 80 | 282 | 11.0 | 18.0 | 0.00 | 0.00 | 0.00 | 15 | 1016.5 |
| 20260508231507 | 80 | 274 | 12.0 | 21.0 | 0.00 | 0.00 | 0.00 | 15 | 1016.5 |
| 20260508231014 | 80 | 315 | 9.0 | 20.0 | 0.00 | 0.00 | 0.00 | 15 | 1016.5 |
| 20260508230520 | 80 | 306 | 13.0 | 20.0 | 0.00 | 0.00 | 0.00 | 15 | 1016.4 |
| 20260508230025 | 80 | 314 | 13.0 | 20.0 | 0.00 | 0.00 | 0.00 | 15 | 1016.4 |
| 20260508225531 | 80 | 304 | 9.0 | 18.0 | 0.00 | 0.00 | 0.00 | 15 | 1016.4 |
| 20260508225037 | 80 | 209 | 12.0 | 21.0 | 0.00 | 0.00 | 0.00 | 15 | 1016.4 |
| 20260508224545 | 80 | 273 | 13.0 | 23.0 | 0.00 | 0.00 | 0.00 | 15 | 1016.4 |
| 20260508224036 | 80 | 281 | 15.0 | 23.0 | 0.00 | 0.00 | 0.00 | 15 | 1016.4 |
| 20260508223543 | 80 | 331 | 10.0 | 21.0 | 0.00 | 0.00 | 0.00 | 15 | 1016.4 |
| 20260508223049 | 80 | 306 | 8.0 | 19.0 | 0.00 | 0.00 | 0.00 | 15 | 1016.4 |
| 20260508222555 | 80 | 275 | 10.0 | 17.0 | 0.00 | 0.00 | 0.00 | 15 | 1016.6 |
| 20260508222046 | 80 | 248 | 8.0 | 20.0 | 0.00 | 0.00 | 0.00 | 15 | 1016.6 |
| 20260508221559 | 80 | 301 | 8.0 | 20.0 | 0.00 | 0.00 | 0.00 | 15 | 1016.6 |
| 20260508221100 | 79 | 303 | 12.0 | 21.0 | 0.00 | 0.00 | 0.00 | 15 | 1016.6 |
| 20260508220502 | 79 | 290 | 10.0 | 18.0 | 0.00 | 0.00 | 0.00 | 15 | 1016.6 |
| 20260508220046 | 79 | 291 | 10.0 | 24.0 | 0.00 | 0.00 | 0.00 | 16 | 1016.7 |
| 20260508215537 | 79 | 284 | 14.0 | 24.0 | 0.00 | 0.00 | 0.00 | 16 | 1016.7 |
| 20260508215047 | 78 | 248 | 10.0 | 24.0 | 0.00 | 0.00 | 0.00 | 16 | 1016.7 |
| 20260508214550 | 77 | 306 | 13.0 | 24.0 | 0.00 | 0.00 | 0.00 | 16 | 1016.9 |
| 20260508214058 | 77 | 263 | 10.0 | 19.0 | 0.00 | 0.00 | 0.00 | 17 | 1016.9 |
| 20260508213604 | 76 | 311 | 12.0 | 23.0 | 0.00 | 0.00 | 0.00 | 17 | 1017.1 |
| 20260508213004 | 76 | 309 | 13.0 | 23.0 | 0.00 | 0.00 | 0.00 | 17 | 1017.0 |
| 20260508212600 | 76 | 288 | 11.0 | 19.0 | 0.00 | 0.00 | 0.00 | 16 | 1017.0 |
| 20260508212001 | 77 | 275 | 9.0 | 19.0 | 0.00 | 0.00 | 0.00 | 16 | 1017.1 |
| 20260508211557 | 77 | 288 | 7.0 | 16.0 | 0.00 | 0.00 | 0.00 | 16 | 1017.2 |
| 20260508211047 | 77 | 290 | 9.0 | 19.0 | 0.00 | 0.00 | 0.00 | 16 | 1017.2 |
| 20260508210556 | 78 | 257 | 11.0 | 24.0 | 0.00 | 0.00 | 0.00 | 16 | 1017.2 |
| 20260508210046 | 78 | 290 | 14.0 | 24.0 | 0.00 | 0.00 | 0.00 | 16 | 1017.1 |
| 20260508205554 | 78 | 257 | 9.0 | 20.0 | 0.00 | 0.00 | 0.00 | 16 | 1017.2 |
| 20260508205042 | 78 | 293 | 11.0 | 21.0 | 0.00 | 0.00 | 0.00 | 15 | 1017.3 |
| 20260508204535 | 79 | 224 | 9.0 | 20.0 | 0.00 | 0.00 | 0.00 | 15 | 1017.2 |
| 20260508204041 | 80 | 244 | 11.0 | 20.0 | 0.00 | 0.00 | 0.00 | 15 | 1017.4 |
| 20260508203546 | 80 | 316 | 13.0 | 19.0 | 0.00 | 0.00 | 0.00 | 15 | 1017.3 |
| 20260508203100 | 81 | 290 | 6.0 | 14.0 | 0.00 | 0.00 | 0.00 | 14 | 1017.4 |
| 20260508202543 | 79 | 232 | 8.0 | 21.0 | 0.00 | 0.00 | 0.00 | 15 | 1017.5 |
| 20260508202049 | 79 | 292 | 8.0 | 18.0 | 0.00 | 0.00 | 0.00 | 15 | 1017.5 |
| 20260508201602 | 78 | 294 | 7.0 | 19.0 | 0.00 | 0.00 | 0.00 | 16 | 1017.6 |
| 20260508201102 | 78 | 248 | 10.0 | 19.0 | 0.00 | 0.00 | 0.00 | 15 | 1017.8 |
| 20260508200552 | 79 | 274 | 7.0 | 23.0 | 0.00 | 0.00 | 0.00 | 15 | 1017.8 |
| 20260508200101 | 78 | 254 | 12.0 | 23.0 | 0.00 | 0.00 | 0.00 | 16 | 1017.8 |
| 20260508195550 | 78 | 257 | 7.0 | 17.0 | 0.00 | 0.00 | 0.00 | 15 | 1017.8 |
| 20260508195042 | 78 | 309 | 9.0 | 20.0 | 0.00 | 0.00 | 0.00 | 16 | 1017.8 |
| 20260508194548 | 78 | 290 | 13.0 | 20.0 | 0.00 | 0.00 | 0.00 | 16 | 1017.9 |
| 20260508194039 | 78 | 184 | 8.0 | 17.0 | 0.00 | 0.00 | 0.00 | 16 | 1017.9 |
| 20260508193546 | 78 | 244 | 8.0 | 19.0 | 0.00 | 0.00 | 0.00 | 16 | 1017.8 |
| 20260508193037 | 78 | 282 | 10.0 | 19.0 | 0.00 | 0.00 | 0.00 | 16 | 1017.8 |
| 20260508192542 | 78 | 186 | 6.0 | 16.0 | 0.00 | 0.00 | 0.00 | 16 | 1017.9 |
| 20260508192049 | 78 | 276 | 7.0 | 15.0 | 0.00 | 0.00 | 0.00 | 16 | 1018.0 |
| 20260508191541 | 77 | 280 | 7.0 | 17.0 | 0.00 | 0.00 | 0.00 | 16 | 1018.1 |
| 20260508191047 | 77 | 286 | 6.0 | 12.0 | 0.00 | 0.00 | 0.00 | 16 | 1018.2 |
| 20260508190554 | 77 | 296 | 6.0 | 16.0 | 0.00 | 0.00 | 0.00 | 16 | 1018.3 |
| 20260508185555 | 77 | 320 | 7.0 | 15.0 | 0.00 | 0.00 | 0.00 | 16 | 1018.3 |
| 20260508185059 | 76 | 175 | 6.0 | 17.0 | 0.00 | 0.00 | 0.00 | 17 | 1018.2 |
| 20260508184608 | 76 | 298 | 8.0 | 21.0 | 0.00 | 0.00 | 0.00 | 17 | 1018.3 |
| 20260508184009 | 76 | 190 | 11.0 | 23.0 | 0.00 | 0.00 | 0.00 | 17 | 1018.3 |
| 20260508183604 | 76 | 301 | 9.0 | 23.0 | 0.00 | 0.00 | 0.00 | 18 | 1018.5 |
| 20260508183007 | 76 | 286 | 11.0 | 18.0 | 0.00 | 0.00 | 0.00 | 17 | 1018.5 |
| 20260508182603 | 76 | 211 | 7.0 | 15.0 | 0.00 | 0.00 | 0.00 | 16 | 1018.5 |
| 20260508182003 | 76 | 160 | 5.0 | 14.0 | 0.00 | 0.00 | 0.00 | 16 | 1018.6 |
| 20260508181608 | 76 | 204 | 7.0 | 14.0 | 0.00 | 0.00 | 0.00 | 16 | 1018.7 |
| 20260508181001 | 76 | 213 | 5.0 | 18.0 | 0.00 | 0.00 | 0.00 | 17 | 1018.8 |
| 20260508180504 | 75 | 288 | 8.0 | 18.0 | 0.00 | 0.00 | 0.00 | 17 | 1019.0 |
| 20260508180106 | 75 | 294 | 10.0 | 17.0 | 0.00 | 0.00 | 0.00 | 17 | 1018.9 |
| 20260508175552 | 75 | 257 | 7.0 | 16.0 | 0.00 | 0.00 | 0.00 | 17 | 1019.0 |
| 20260508175100 | 75 | 288 | 8.0 | 15.0 | 0.00 | 0.00 | 0.00 | 17 | 1019.0 |
| 20260508174501 | 75 | 272 | 7.0 | 15.0 | 0.00 | 0.00 | 0.00 | 17 | 1019.0 |
| 20260508174008 | 76 | 273 | 6.0 | 12.0 | 0.00 | 0.00 | 0.00 | 17 | 1019.0 |
| 20260508173605 | 75 | 257 | 5.0 | 10.0 | 0.00 | 0.00 | 0.00 | 17 | 1019.2 |
| 20260508173006 | 75 | 171 | 5.0 | 10.0 | 0.00 | 0.00 | 0.00 | 17 | 1019.2 |
| 20260508172602 | 75 | 284 | 3.0 | 10.0 | 0.00 | 0.00 | 0.00 | 17 | 1019.3 |
| 20260508172052 | 74 | 234 | 3.0 | 11.0 | 0.00 | 0.00 | 0.00 | 17 | 1019.3 |
| 20260508171601 | 73 | 193 | 5.0 | 12.0 | 0.00 | 0.00 | 0.00 | 18 | 1019.4 |
| 20260508171001 | 71 | 288 | 6.0 | 12.0 | 0.00 | 0.00 | 0.00 | 19 | 1019.5 |
| 20260508170509 | 71 | 248 | 5.0 | 10.0 | 0.00 | 0.00 | 0.00 | 19 | 1019.6 |
| 20260508170105 | 71 | 244 | 5.0 | 11.0 | 0.00 | 0.00 | 0.00 | 19 | 1019.6 |
| 20260508165508 | 71 | 234 | 4.0 | 11.0 | 0.00 | 0.00 | 0.00 | 19 | 1019.7 |
| 20260508165106 | 71 | 234 | 3.0 | 8.0 | 0.00 | 0.00 | 0.00 | 20 | 1019.7 |
| 20260508164505 | 70 | 267 | 4.0 | 8.0 | 0.00 | 0.00 | 0.00 | 20 | 1019.7 |
| 20260508164101 | 71 | 247 | 4.0 | 8.0 | 0.00 | 0.00 | 0.00 | 20 | 1019.7 |
| 20260508163552 | 70 | 240 | 2.0 | 6.0 | 0.00 | 0.00 | 0.00 | 21 | 1019.8 |
| 20260508163058 | 70 | 205 | 3.0 | 7.0 | 0.00 | 0.00 | 0.00 | 21 | 1019.7 |
| 20260508162549 | 69 | 173 | 3.0 | 7.0 | 0.00 | 0.00 | 0.00 | 22 | 1019.8 |
| 20260508162055 | 69 | 134 | 1.0 | 5.0 | 0.00 | 0.00 | 0.00 | 22 | 1019.8 |
| 20260508161545 | 68 | 216 | 2.0 | 7.0 | 0.00 | 0.00 | 0.00 | 23 | 1019.7 |
| 20260508161036 | 67 | 153 | 5.0 | 7.0 | 0.00 | 0.00 | 0.00 | 24 | 1019.8 |
| 20260508160546 | 67 | 182 | 1.0 | 6.0 | 0.00 | 0.00 | 0.00 | 24 | 1019.9 |
| 20260508160049 | 66 | 150 | 2.0 | 6.0 | 0.00 | 0.00 | 0.00 | 24 | 1019.9 |
| 20260508155559 | 65 | 146 | 1.0 | 4.0 | 0.00 | 0.00 | 0.00 | 24 | 1019.8 |
| 20260508155050 | 65 | 157 | 0.0 | 4.0 | 0.00 | 0.00 | 0.00 | 24 | 1019.8 |
| 20260508154603 | 65 | 149 | 3.0 | 4.0 | 0.00 | 0.00 | 0.00 | 25 | 1019.9 |
| 20260508154046 | 64 | 192 | 3.0 | 6.0 | 0.00 | 0.00 | 0.00 | 25 | 1019.9 |
| 20260508153537 | 63 | 131 | 3.0 | 7.0 | 0.00 | 0.00 | 0.00 | 25 | 1020.0 |
| 20260508153052 | 63 | 150 | 2.0 | 7.0 | 0.00 | 0.00 | 0.00 | 26 | 1020.0 |
| 20260508152551 | 63 | 163 | 2.0 | 4.0 | 0.00 | 0.00 | 0.00 | 26 | 1019.9 |
| 20260508152059 | 62 | 120 | 3.0 | 6.0 | 0.00 | 0.00 | 0.00 | 26 | 1019.9 |
| 20260508151551 | 61 | 127 | 3.0 | 6.0 | 0.00 | 0.00 | 0.00 | 27 | 1019.9 |
| 20260508151058 | 61 | 104 | 2.0 | 7.0 | 0.00 | 0.00 | 0.00 | 28 | 1020.0 |
| 20260508150604 | 60 | 119 | 3.0 | 7.0 | 0.00 | 0.00 | 0.00 | 28 | 1020.0 |
| 20260508150007 | 60 | 119 | 3.0 | 8.0 | 0.00 | 0.00 | 0.00 | 29 | 1020.0 |
| 20260508145603 | 59 | 118 | 4.0 | 8.0 | 0.00 | 0.00 | 0.00 | 29 | 1019.9 |
| 20260508145005 | 59 | 130 | 5.0 | 7.0 | 0.00 | 0.00 | 0.00 | 29 | 1019.9 |
| 20260508144601 | 58 | 101 | 4.0 | 7.0 | 0.00 | 0.00 | 0.00 | 30 | 1020.0 |
| 20260508144002 | 58 | 134 | 3.0 | 7.0 | 0.00 | 0.00 | 0.00 | 30 | 1020.0 |
| 20260508143558 | 57 | 96 | 3.0 | 7.0 | 0.00 | 0.00 | 0.00 | 31 | 1020.0 |
| 20260508143048 | 57 | 104 | 3.0 | 8.0 | 0.00 | 0.00 | 0.00 | 32 | 1020.0 |
| 20260508142556 | 56 | 95 | 5.0 | 8.0 | 0.00 | 0.00 | 0.00 | 31 | 1020.0 |
| 20260508142047 | 56 | 132 | 4.0 | 8.0 | 0.00 | 0.00 | 0.00 | 32 | 1020.2 |
| 20260508141615 | 56 | 126 | 4.0 | 8.0 | 0.00 | 0.00 | 0.00 | 33 | 1020.0 |
| 20260508141101 | 55 | 126 | 4.0 | 8.0 | 0.00 | 0.00 | 0.00 | 32 | 1020.1 |
| 20260508140503 | 55 | 121 | 4.0 | 7.0 | 0.00 | 0.00 | 0.00 | 32 | 1020.0 |
| 20260508140046 | 55 | 129 | 3.0 | 7.0 | 0.00 | 0.00 | 0.00 | 33 | 1020.0 |
| 20260508135537 | 54 | 132 | 2.0 | 7.0 | 0.00 | 0.00 | 0.00 | 33 | 1020.0 |
| 20260508135045 | 53 | 119 | 3.0 | 8.0 | 0.00 | 0.00 | 0.00 | 33 | 1019.9 |
| 20260508134602 | 53 | 122 | 3.0 | 8.0 | 0.00 | 0.00 | 0.00 | 34 | 1019.8 |
| 20260508134103 | 52 | 88 | 3.0 | 7.0 | 0.00 | 0.00 | 0.00 | 34 | 1019.8 |
| 20260508133605 | 52 | 91 | 4.0 | 7.0 | 0.00 | 0.00 | 0.00 | 34 | 1019.7 |
| 20260508133009 | 51 | 90 | 3.0 | 7.0 | 0.00 | 0.00 | 0.00 | 35 | 1019.7 |
| 20260508132603 | 51 | 98 | 4.0 | 7.0 | 0.00 | 0.00 | 0.00 | 35 | 1019.7 |
| 20260508132007 | 50 | 101 | 3.0 | 7.0 | 0.00 | 0.00 | 0.00 | 36 | 1019.6 |
| 20260508131602 | 50 | 94 | 5.0 | 7.0 | 0.00 | 0.00 | 0.00 | 36 | 1019.6 |
| 20260508131003 | 49 | 117 | 4.0 | 7.0 | 0.00 | 0.00 | 0.00 | 37 | 1019.5 |
| 20260508130512 | 49 | 98 | 4.0 | 7.0 | 0.00 | 0.00 | 0.00 | 37 | 1019.6 |
| 20260508130105 | 49 | 111 | 3.0 | 7.0 | 0.00 | 0.00 | 0.00 | 37 | 1019.5 |
| 20260508125509 | 49 | 103 | 4.0 | 8.0 | 0.00 | 0.00 | 0.00 | 37 | 1019.5 |
| 20260508125103 | 48 | 108 | 3.0 | 8.0 | 0.00 | 0.00 | 0.00 | 38 | 1019.4 |
| 20260508124559 | 48 | 92 | 4.0 | 7.0 | 0.00 | 0.00 | 0.00 | 38 | 1019.4 |
| 20260508124100 | 47 | 98 | 3.0 | 7.0 | 0.00 | 0.00 | 0.00 | 39 | 1019.3 |
| 20260508123502 | 47 | 96 | 3.0 | 6.0 | 0.00 | 0.00 | 0.00 | 40 | 1019.3 |
| 20260508123009 | 47 | 106 | 3.0 | 8.0 | 0.00 | 0.00 | 0.00 | 40 | 1019.3 |
| 20260508122607 | 47 | 92 | 3.0 | 8.0 | 0.00 | 0.00 | 0.00 | 40 | 1019.3 |
| 20260508122008 | 46 | 96 | 4.0 | 7.0 | 0.00 | 0.00 | 0.00 | 41 | 1019.3 |
| 20260508121603 | 46 | 89 | 4.0 | 7.0 | 0.00 | 0.00 | 0.00 | 41 | 1019.3 |
| 20260508121053 | 46 | 90 | 3.0 | 6.0 | 0.00 | 0.00 | 0.00 | 40 | 1019.3 |
| 20260508120600 | 46 | 86 | 3.0 | 4.0 | 0.00 | 0.00 | 0.00 | 40 | 1019.3 |
| 20260508120051 | 46 | 101 | 3.0 | 4.0 | 0.00 | 0.00 | 0.00 | 40 | 1019.2 |
| 20260508115543 | 46 | 96 | 3.0 | 4.0 | 0.00 | 0.00 | 0.00 | 40 | 1019.2 |
| 20260508115051 | 46 | 102 | 3.0 | 4.0 | 0.00 | 0.00 | 0.00 | 40 | 1019.2 |
| 20260508114555 | 47 | 108 | 2.0 | 3.0 | 0.00 | 0.00 | 0.00 | 40 | 1019.2 |
| 20260508114104 | 47 | 109 | 3.0 | 4.0 | 0.00 | 0.00 | 0.00 | 38 | 1019.2 |
| 20260508113555 | 47 | 112 | 3.0 | 4.0 | 0.00 | 0.00 | 0.00 | 38 | 1019.2 |
| 20260508113115 | 48 | 115 | 2.0 | 4.0 | 0.00 | 0.00 | 0.00 | 38 | 1019.2 |
| 20260508112553 | 48 | 118 | 2.0 | 3.0 | 0.00 | 0.00 | 0.00 | 37 | 1019.2 |
| 20260508112044 | 48 | 106 | 2.0 | 3.0 | 0.00 | 0.00 | 0.00 | 36 | 1019.2 |
| 20260508111533 | 49 | 84 | 2.0 | 3.0 | 0.00 | 0.00 | 0.00 | 36 | 1019.2 |
| 20260508111042 | 49 | 79 | 0.0 | 4.0 | 0.00 | 0.00 | 0.00 | 36 | 1019.1 |
| 20260508110548 | 49 | 44 | 2.0 | 2.0 | 0.00 | 0.00 | 0.00 | 35 | 1019.2 |
| 20260508110059 | 50 | 355 | 1.0 | 2.0 | 0.00 | 0.00 | 0.00 | 34 | 1019.2 |
| 20260508105545 | 50 | 355 | 1.0 | 2.0 | 0.00 | 0.00 | 0.00 | 34 | 1019.1 |